This demonstration page uses our WeatherBlox Daily Observations layout. Learn more.

Left ArrowRight Arrow

Hourly Observations for January 29, 2022

Temp ( °F °C ) Dew Point ( °F °C ) Humidity (%) Winds ( mph kmh ) Pressure ( in mb ) Visibility ( mi km ) Precip ( " mm )
12:03 am 00:03 Cloudy with Light Snow 31 -0.6 27 -2.8 85 85 NW 12 19 30.12 1020 3 5 0.00 0.00
12:38 am 00:38 Mostly Cloudy 31 -0.6 24 -4.4 76 76 NW 16 26 30.11 1020 10 16 0.00 0.00
12:53 am 00:53 Partly Cloudy 31 -0.6 23 -5 72 72 NW 14 22 30.07 1018 10 16 0.00 0.00
1:53 am 01:53 Cloudy 31 -0.6 21 -6.1 67 67 NW 13 20 30.07 1018 10 16 0.00 0.00
2:53 am 02:53 Partly Cloudy 29 -1.7 15 -9.4 56 56 NW 10 17 30.09 1019 10 16 0.00 0.00
3:53 am 03:53 Cloudy 29 -1.7 15 -9.4 56 56 NW 16 26 30.09 1019 10 16 0.00 0.00
4:53 am 04:53 Cloudy 28 -2.2 16 -8.9 60 60 NNW 22 35 30.11 1020 10 16 0.00 0.00
5:53 am 05:53 Partly Cloudy 27 -2.8 13 -10.6 55 55 NW 20 31 30.13 1020 10 16 0.00 0.00
6:53 am 06:53 Clear 26 -3.3 13 -10.6 57 57 NNW 10 17 30.16 1022 10 16 0.00 0.00
7:53 am 07:53 Mostly Sunny 25 -3.9 13 -10.6 60 60 NW 14 22 30.19 1022 10 16 0.00 0.00
8:53 am 08:53 Sunny 26 -3.3 9 -12.8 48 48 NW 13 20 30.23 1024 10 16 0.00 0.00
9:53 am 09:53 Sunny 27 -2.8 9 -12.8 46 46 NNW 13 20 30.26 1025 10 16 0.00 0.00
10:53 am 10:53 Sunny 29 -1.7 6 -14.4 38 38 NNW 10 17 30.27 1025 10 16 0.00 0.00
11:53 am 11:53 Sunny 30 -1.1 6 -14.4 36 36 WNW 14 22 30.27 1025 10 16 0.00 0.00
12:53 pm 12:53 Sunny 33 0.6 4 -15.6 29 29 NW 13 20 30.24 1024 10 16 0.00 0.00
1:53 pm 13:53 Sunny 35 1.7 1 -17.2 23 23 WNW 14 22 30.22 1023 10 16 0.00 0.00
2:53 pm 14:53 Sunny 35 1.7 4 -15.6 27 27 W 12 19 30.20 1023 10 16 0.00 0.00
3:53 pm 15:53 Sunny 37 2.8 1 -17.2 22 22 NW 13 20 30.19 1023 10 16 0.00 0.00
4:53 pm 16:53 Sunny 36 2.2 0 -17.8 21 21 NNW 12 19 30.20 1023 10 16 0.00 0.00
5:53 pm 17:53 Sunny 34 1.1 0 -17.8 23 23 NNW 9 15 30.19 1023 10 16 0.00 0.00
6:53 pm 18:53 Clear 31 -0.6 2 -16.7 29 29 Calm 30.19 1023 10 16 0.00 0.00
7:53 pm 19:53 Clear 30 -1.1 3 -16.1 31 31 Calm 30.19 1022 10 16 0.00 0.00
8:53 pm 20:53 Clear 31 -0.6 3 -16.1 30 30 Calm 30.19 1022 10 16 0.00 0.00
9:53 pm 21:53 Clear 30 -1.1 3 -16.1 31 31 SSW 3 6 30.20 1023 10 16 0.00 0.00
10:53 pm 22:53 Clear 29 -1.7 6 -14.4 38 38 SSW 3 6 30.19 1022 10 16 0.00 0.00
11:53 pm 23:53 Clear 27 -2.8 11 -11.7 51 51 Calm 30.18 1022 10 16 0.00 0.00

Powered by AerisWeather